STARLINK-36829

Last updated on Fri Mar 27 2026 00:02:06 GMT+0000 (Coordinated Universal Time)

1 67957U 26037AB 26085.50002314 .00115520 00000+0 19513-2 0 9992 2 67957 43.0004 97.2695 0000867 263.0314 132.4536 15.50503195 5907
UTC large
Height (km)
Speed (km/s)
/
Latitude / Longitude
Inclination (degrees)
Orbital Period (minutes)
Azimuth
Elevation
Range (km)
Doppler Factor

Next 0 passes for location: London (51.5072 / 0.1276)

Sorry there are no passes over London.